Regional Weather Roundup
Issued by NWS

Home | Current Version | Previous Version | Graphics & Text | Print | Product List | Glossary On
Versions: 1 2 3 4 5 6 7 8 9 10 11 12 13 14 15 16 17 18 19 20 21 22 23 24 25 26 27 28 29 30 31 32 33 34 35 36 37 38 39 40 41 42 43 44 45 46 47 48 49 50
000
ASUS43 KDTX 282301
RWRMI
MICHIGAN HOURLY REGIONAL WEATHER ROUNDUP
NATIONAL WEATHER SERVICE DETROIT/PONTIAC MI
700 PM EDT SAT MAR 28 2015

NOTE: "FAIR" INDICATES FEW OR NO CLOUDS BELOW 12,000 FEET WITH NO
SIGNIFICANT WEATHER AND/OR OBSTRUCTION TO VISIBILITY.

MIZ047>049-052>055-059>063-066>070-074>076-081>083-290000-
SOUTHEAST LOWER MICHIGAN

CITY           SKY/WX    TMP DP  RH WIND       PRES   REMARKS
ADRIAN         CLEAR     36   7  29 NW8       30.27R WCI  30
ALMA           SUNNY     37   4  25 W7        30.26S WCI  31
ANN ARBOR      CLEAR     34   6  31 W8        30.26R WCI  27
BAD AXE        CLEAR     31   8  36 W6        30.25S WCI  26
CARO           CLEAR     32   7  35 SW3       30.26R
DETROIT CITY   CLEAR     35  11  36 E6        30.27R WCI  30
DETROIT        CLEAR     36   7  29 W8        30.27R WCI  30
FLINT          CLEAR     35   7  31 W6        30.27R WCI  30
GROSSE ILE     CLEAR     30  18  59 S10       30.26S WCI  21
HILLSDALE      SUNNY     35   4  27 NW6       30.25R WCI  30
HOWELL         CLEAR     33   7  32 SW3       30.25R

CITY           SKY/WX    TMP DP  RH WIND       PRES   REMARKS
JACKSON        SUNNY     34   3  27 NW6       30.26R WCI  29
LAMBERTVILLE   CLEAR     36   9  32 CALM      30.28R
LANSING        SUNNY     35   3  26 NW3       30.27R
LAPEER         FAIR      32   3  29 NW3       30.26R
MASON          CLEAR     34   3  27 W7        30.27R WCI  28
MONROE         CLEAR     36  10  35 CALM      30.26R
MT. CLEMENS    CLEAR     33  11  39 N5        30.24R WCI  29
PONTIAC        PTCLDY    33   4  29 W8        30.24R WCI  26
PORT HOPE        N/A     27  12  53 CALM      30.24S
PORT HURON     CLEAR     28  16  59 NE9       30.27S WCI  20
TRI CITIES     CLEAR     36   7  29 SW8       30.25S WCI  30
TROY           CLEAR     35   5  28 CALM      30.27S
SAGINAW HB     CLEAR     34  10  37 SW8       30.26R WCI  27
$$
MIZ043>046-050>051-056>058-064>065-071>073-077>080-290000-
SOUTHWEST LOWER MICHIGAN

CITY           SKY/WX    TMP DP  RH WIND       PRES   REMARKS
BATTLE CREEK   SUNNY     37   2  22 NW6       30.26S WCI  32
BENTON HARBOR  SUNNY     26  11  52 VRB7      30.32R WCI  18
BIG RAPIDS     SUNNY     35   4  26 W10       30.22S WCI  27
COLDWATER      SUNNY     35   4  27 CALM      30.27R
FREMONT        FAIR      32   5  32 W8        30.28R WCI  25
HOLLAND        SUNNY     29  10  45 W8        30.32R WCI  21
GRAND RAPIDS   SUNNY     34   9  35 W12       30.27S WCI  25
IONIA          FAIR      37   0  21 CALM      30.25S
KALAMAZOO      SUNNY     37   1  22 NW6       30.27R WCI  32
LUDINGTON      SUNNY     31  15  52 SW3       30.29S
MARSHALL       SUNNY     35   0  22 NW3       30.26R
MOUNT PLEASANT SUNNY     37   3  24 SW5       30.23S WCI  33
MUSKEGON       SUNNY     29  10  45 W7        30.31S WCI  22
SOUTH HAVEN    SUNNY     28  10  45 NW9       30.32R WCI  20
$$
MIZ016>042-290000-
NORTHERN LOWER MICHIGAN

CITY           SKY/WX    TMP DP  RH WIND       PRES   REMARKS
ALPENA         CLEAR     30  13  49 SE10      30.23R WCI  21
BEAVER ISLAND  SUNNY     27  17  66 SW9       30.23F WCI  18
BELLAIRE       SUNNY     31   6  35 W5        30.26S WCI  26
CADILLAC       SUNNY     34   2  26 W7        30.20R WCI  28
CHARLEVOIX     SUNNY     29   8  41 SW6       30.27F WCI  23
FRANKFORT      SUNNY     32  12  43 SW3       30.26F
GAYLORD        CLEAR     29  -4  24 W9        30.20S WCI  20
GRAYLING       SUNNY     32  -2  22 W5        30.21S WCI  28
HARBOR SPRINGS SUNNY     25  13  59 W5        30.24F WCI  19
HOUGHTON LAKE  SUNNY     34   8  33 W7        30.20F WCI  28
MANISTEE       SUNNY     28   9  43 S5        30.28F WCI  23
OSCODA         CLEAR     30  14  51 S6        30.23S WCI  24
PELLSTON       CLEAR     28   5  37 SW8       30.24F WCI  20
ROGERS CITY    CLEAR     28  19  67 N8        30.23S WCI  20
TRAVERSE CITY  SUNNY     30  14  51 NE7       30.24S WCI  23
$$
MIZ007>008-015-290000-
EASTERN UPPER MICHIGAN

CITY           SKY/WX    TMP DP  RH WIND       PRES   REMARKS
KINROSS        CLEAR     28  12  50 W8        30.19S WCI  20
MACKINAC ISLAN CLEAR     25  17  70 SW7       30.22F WCI  17
NEWBERRY       SUNNY     27  14  57 S9        30.18S WCI  18
S. S. MARIE    CLEAR     30   8  39 W7        30.18F WCI  23
$$
MIZ004>006-011>014-085-290000-
CENTRAL UPPER MICHIGAN

CITY           SKY/WX    TMP DP  RH WIND       PRES   REMARKS
MANISTIQUE     SUNNY     28  21  75 S15G21    30.20F WCI  16
ESCANABA       SUNNY     34  18  51 S10G20    30.18F WCI  26
MENOMINEE      SUNNY     36  16  44 SW15      30.19F WCI  26
SAWYER-GWINN   SUNNY     37   7  28 S10G16    30.10F WCI  30
$$
MIZ001>003-009>011-084-290000-
WESTERN UPPER MICHIGAN

CITY           SKY/WX    TMP DP  RH WIND       PRES   REMARKS
IRON MOUNTAIN  SUNNY     40  11  30 S13G20    30.10F WCI  32
HOUGHTON       SUNNY     31  13  47 E7        30.07F WCI  24
COPPER HARBOR    N/A     30  14  51 SW10      30.10F WCI  21
IRONWOOD       SUNNY     39   9  28 SW13G18   30.03S WCI  32
$$

ABBREVIATIONS USED IN REMARKS
   TC - TEMPERATURE IN CELSIUS
  WCI - WIND CHILL INDEX
   HX - HEAT INDEX
  VSB - VISIBILITY



USA.gov is the U.S. government's official web portal to all federal, state and local government web resources and services.